Tracking 27188 objects as of 1-Apr-2023
HD Live streaming from Space Station
objects crossing your sky now

ARIANE 5 R/B

Track ARIANE 5 R/B now!


NORAD ID: 36832
Int'l Code: 2010-037C
Perigee: 275.3 km
Apogee: 32,466.2 km
Inclination: 2.0 °
Period: 568.8 minutes
Semi major axis: 22741 km
RCS: 25.4404 m2 (large)
Launch date: August 4, 2010
Source: France (FR)
Launch site: FRENCH GUIANA (FRGUI)

Note: This is a ROCKET BODY
Your satellite tracking list
Your tracking list is empty




NASA's NSSDC Master Catalog

Two Line Element Set (TLE):
1 36832U 10037C   23091.54430524  .00003641  00000-0  13854-2 0  9992
2 36832   2.0422 182.9850 7077478 339.4304   2.5817  2.53143387111825
Source of the keplerian elements: AFSPC